Погода в Воркуте

Погода в Воркуте : погода сейчас, прогноз погоды и архив. Всё, что Вы хотите узнать о погоде в Воркуте!

Хотите узнать прогноз погоды в Воркуте? Тогда Вам сюда: Погода в Воркуте

Поиск расширенной информации на нашем сайте:

Другие новости

Новости СМИ2

Главная страница сайта

Новости сайта

03.07.2017

Напоминаем, что на нашем специализированном сайте Метеоцентр.Азия вы можете получить высокодетализированные автоматические прогнозы погоды по пунктам России, СНГ и мира в авиационном формате (включающие направление и скорость ветра, видимость, явления погоды, количество и форму облачности, нижнюю и верхнюю границу облачности).


Погода в Воркуте - сегодня

Время (UTC), дата Ветер
(°,м/с) 
Видим.   Явления Облачность Т
(°С)
Тd
(°С)
f(%) Тe
(°С)
Pmin
(гПа)
dP
(гПа)
Po
(мм)
O2
(г/м3)
Тmin Tmax R s Состояние
почвы
09 15.06.18 340 (С) 10 км    6/0 верхняя 
[Cc]
+9.8 +3.6 65 +9  1007  740  287           
12 15.06.18 340 (С) 10 км    4/0 верхняя 
[Cc]
+8.8 +2.9 66 +8  1009.4  2.3  741  289           
18 15.06.18 360 (С) 10 км    10/10 330 м 
[Sc]
+4 +1.7 85 +2  1013.3  744  295           
00 16.06.18 360 (С) 10 км    10/10 120 м 
[St]
+1.4 +0.6 94 -1  1015.4  0.7  745  299           
18 16.06.18 030 (СВ) 10 км    10/10 240 м 
[Frnb]
+2.9 +1.6 91 1016.8  0.2  747  297           
06 17.06.18 030 (СВ) 10 км    8/4 300 м средняя 
[Sc|Ac trans]
+7.2 +3.7 78 +6  1016.7  -0.4  747  293           
09 17.06.18 020 (С) 10 км    9/0 средняя 
[Ac trans]
+9.2 +4.2 71 +9  1016.5  -0.1  747  290           
12 17.06.18 030 (СВ) 10 км    8/0 средняя 
[Ac trans]
+10.4 +4.4 66 +9  1016  -0.3  746  289           
18 17.06.18 010 (С) 10 км    3/0 средняя 
[Ac lent]
+6.3 +2.9 79 +5  1015.7  -0.2  746  293           
21 17.06.18 360 (С) 10 км    1/0 средняя 
[Ac lent]
+2.5 +1.5 93 +1  1014.7  -1.3  745  297           
06 18.06.18 040 (СВ) 10 км    4/0 средняя, верхняя 
[Ac trans|Ci fib]
+9.5 +4.1 69 +8  1012.4  -0.7  744  289           
09 18.06.18 020 (С) 10 км    4/0 средняя 
[Ac trans]
+11.5 +4.4 62 +10  1011.8  -0.4  743  287           
18 18.06.18 010 (С) 5{11}  10 км    8/4 300 м средняя 
[Sc|Ac cast]
+6.2 +2.6 78 +4  1011.4  -0.7  743  292           
21 18.06.18 360 (С) 10 км    9/0 средняя 
[Ac trans]
+4 +2.5 90 +2  1010.4  -1.1  742  294           
03 19.06.18 010 (С) 10 км  в посл. час дождь  10/10 240 м 
[Frnb]
+2.7 +1.9 94 1009.7  -0.4  741  295  +1.8    0.0    мокрая 
09 19.06.18 010 (С) 10 км    10/10 330 м кучево-дожд. 
[Cb cap]
+4.8 +2.3 84 +3  1008.8  -0.4  741  293           
21 19.06.18 030 (СВ) 10 км    10/10 240 м 
[Frnb]
+2.9 +2.1 94 +2  1004.1  -1.8  737  294           
00 20.06.18 020 (С) 10 км    10/10 120 м 
[St]
+2.5 +2 96 +1  1002.8  -1.2  736  294           
09 20.06.18 тихо ()   10 км    10/6 480 м верхняя 
[Sc|Ci fib]
+7.8 +3.9 76 +8  997.2  -1.7  732  286           
12 20.06.18 190 (Ю) 10 км    10/6 800 м средняя 
[Sc|Ac und]
+10.1 +5.3 72 +10  996.2  -0.7  732  284           
15 20.06.18 150 (ЮВ) 10 км    ясно 
+13 +7.3 68 +13  995  -1.1  731  280    +13.4  0.0     
18 20.06.18 090 (В) 10 км    3/0 верхняя 
[Ci fib]
+10.3 +7.2 81 +10  994.7  -0.4  731  283           
21 20.06.18 040 (СВ) 10 км    8/0 средняя, верхняя 
[Ac trans|Ci fib]
+5.7 +4.1 89 +5  994.7  -0.4  731  288           
00 21.06.18 020 (С) 10 км    10/0 средняя, верхняя 
[Ac trans|Ci fib]
+6.1 +5.2 94 +6  993.6  -1  730  287           
09 21.06.18 020 (С) 10 км    10/0 средняя, верхняя 
[Ac trans|Ci fib]
+14.6 +8.2 65 +14  990.7  -0.2  728  277           
Время (UTC), дата Ветер
(°,м/с) 
Видим.   Явления Облачность Т
(°С)
Тd
(°С)
f(%) Тe
(°С)
Pmin
(гПа)
dP
(гПа)
Po
(мм)
O2
(г/м3)
Тmin Tmax R s Состояние
почвы

Для получения пояснительной информации подведите курсор к названию столбца.

ПОГОДА в Воркуте - архив

Всё, что Вы хотите узнать о погоде в Воркуте - удобно и подробно!

Выберите нужную дату (начиная с 1 января 2015* года) и нажмите кнопку "Найти".
Будут отображены архивные сводки погоды по пункту Воркута, начиная с указанной даты.


Отображать данные в формате CSV (для использования в таблицах Excel)


Внимание! Наш архив погоды предназначен исключительно для личного некоммерческого использования в познавательных целях. Если Вам необходимы официальные справки о состоянии погоды (для производственных, юридических, коммерческих и т.п. целей), обращайтесь в органы Росгидромета.

*Примечание: данная дата относится к архиву по метеостанциям СССР (Россия, СНГ, Балтия).
Архив по метеостанциям Зарубежной Европы и Азии (кроме Китая) хранится 10 дней, по другим регионам земного шара (Китай, Африка, Америка, Австралия, Океания) - 1 день.

Воркута - район местоположения метеостанции


Название, широта, долгота, высота метеостанции:
Воркута 67.5°ш. 64°д. 172 м над ур. моря [Российская Федерация]

Дополнительная информация

В oтличие oт бoльшинства пoгoдных сайтoв мы публикуем пoдрoбную метеoинфoрмацию в детальнoм прoфессиoнальнoм фoрмате.

Характеристики температуры и влажнoсти вoздуха измеряются на высoте 2 м в тени вдали oт зданий и деревьев.
Скoрoсть ветра измеряется на высoте 10 м (на урoвне рoста челoвека скoрoсть ветра ниже в 1.5-2 раза). Если метеoстанция нахoдится в гoрoде или в лесу, тo скoрoсть ветра занижена на 2-4 м/с пo сравнению с oткрытым местoм. Скoрoсть ветра над акватoриями крупных рек и oзёр, а также на вершинах хoлмoв на 2-5 м/с выше, чем в oбычных услoвиях.
Атмoсфернoе давление в разных тoчках местнoсти мoжет значительнo oтличаться oт давления на метеoстанции, в зависимoсти oт услoвий рельефа (при пoдъёме на 10 м давление пoнижается примернo на 1 мм рт.ст.).